Flag for Germany Weather past 2 weeks in Rastatt, Baden-Württemberg, Germany

Now
75 °F

Passing clouds.


Feels Like: 78 °F
Forecast: 54 / 81 °F
Wind: 6 mph from West

Location: Karlsruhe - Baden Wurttemberg

Current Time: Jun 3, 2015 at 8:16:58 PM

Latest Report: Jun 3, 2015 at 7:20 PM


Visibility: N/A

Pressure: 30.21 "Hg

Humidity: 44%

Dew point: 52 °F

Location of RastattLocation

Historic Weather in Rastatt — Graph

°F

Rastatt temperature yesterday

Maximum temperature yesterday: 81 °F (at 4:20 PM)
Minimum temperature yesterday: 54 °F (at 4:50 AM)
Average temperature yesterday: 71 °F

Past Weeks' High & Low Weather Summary

 TemperatureHumidityPressure
High81 °F (Jun 2, 4:20 PM)100% (May 31, 10:20 PM)30.33 "Hg (May 31, 10:20 PM)
Low39 °F (May 22, 4:50 AM)26% (May 22, 4:50 PM)29.83 "Hg (May 29, 2:50 PM)
Average60 °F60%30.07 "Hg
* Reported May 19 7:20 PM — Jun 3 7:20 PM, Rastatt, Weather by CustomWeather, © 2015

Note: Actual official high and low records may vary slightly from our data, if they occured in-between our weather recording intervals... More about our weather records

Advertising

Rastatt weather history for previous 24 hours

 ConditionsComfort  
Time TempWeatherWind HumidityBarometerVisibility
7:20 PM
Wed, Jun 3
75 °FPassing clouds.6 mph44%30.21 "HgN/A
6:50 PM75 °FPassing clouds.6 mph44%30.21 "HgN/A
6:20 PM77 °FPassing clouds.5 mph42%30.21 "HgN/A
5:50 PM77 °FPassing clouds.7 mph42%30.21 "HgN/A
5:20 PM77 °FPassing clouds.7 mph44%30.21 "HgN/A
4:50 PM77 °FPassing clouds.8 mph44%30.21 "HgN/A
4:20 PM77 °FPassing clouds.7 mph44%30.21 "HgN/A
3:50 PM77 °FPassing clouds.7 mph44%30.21 "HgN/A
3:20 PM77 °FPassing clouds.7 mph47%30.21 "HgN/A
2:50 PM77 °FPassing clouds.8 mph47%30.21 "HgN/A
2:20 PM75 °FPassing clouds.8 mph44%30.21 "HgN/A
1:50 PM75 °FPassing clouds.8 mph44%30.18 "HgN/A
1:20 PM75 °FPassing clouds.8 mph47%30.18 "HgN/A
12:50 PM75 °FPassing clouds.7 mph44%30.18 "HgN/A
12:20 PM73 °FPassing clouds.8 mph47%30.18 "HgN/A
11:50 AM73 °FPassing clouds.9 mph44%30.18 "HgN/A
11:20 AM72 °FPassing clouds.8 mph47%30.18 "HgN/A
10:50 AM73 °FPassing clouds.8 mph47%30.18 "HgN/A
10:20 AM72 °FPassing clouds.8 mph47%30.18 "HgN/A
9:50 AM72 °FPassing clouds.8 mph44%30.18 "HgN/A
9:20 AM72 °FPassing clouds.8 mph50%30.18 "HgN/A
8:50 AM70 °FSunny.10 mph53%30.15 "Hg10 mi
8:20 AM68 °FSunny.8 mph53%30.15 "Hg10 mi
7:50 AM68 °FSunny.9 mph56%30.15 "Hg10 mi
7:20 AM66 °FSunny.7 mph64%30.12 "Hg10 mi
6:50 AM64 °FSunny.6 mph64%30.12 "Hg10 mi
6:20 AM61 °FClear.5 mph72%30.12 "Hg10 mi
5:20 AM61 °FClear.6 mph68%30.09 "Hg10 mi
4:50 AM59 °FClear.7 mph72%30.09 "Hg10 mi
12:50 AM64 °FClear.5 mph56%30.07 "Hg10 mi
11:50 PM
Tue, Jun 2
66 °FClear.6 mph52%30.07 "Hg10 mi
10:50 PM66 °FClear.6 mph52%30.04 "Hg10 mi
10:20 PM68 °FSunny.6 mph49%30.04 "Hg10 mi
9:50 PM70 °FPassing clouds.6 mph50%30.04 "HgN/A
9:20 PM70 °FSunny.9 mph46%30.04 "Hg10 mi
8:50 PM75 °FSunny.7 mph39%30.04 "Hg10 mi
8:20 PM77 °FPassing clouds.6 mph32%30.04 "HgN/A
Weather by CustomWeather, © 2015

See weather overviewHow to use our weather pages